IJM612 EHAM-EGJB

Flight info

Callsign IJM612
Flight time 1h 0m
Altitude 34000
Route IDRID L980 LOGAN DCT SAM N63 LELNA
Aircraft CL60/M-SBDE1E2E3FGHIJ1J4J5J7M3RWXYZ/LB1V1D1

Departure

Time 2026-04-30 19:51
Airport Amsterdam Airport Schiphol (EHAM)

Arrival

Time 2026-04-30 20:51
Airport Guernsey Airport (EGJB)
Time Latitude Longitude Altitude Speed Heading
2026-04-30 19:19 52.31133 4.80622 -5 ft 0 kts 313°
2026-04-30 19:38 52.31138 4.80620 -5 ft 3 kts
2026-04-30 19:39 52.31144 4.80649 -5 ft 1 kts 101°
2026-04-30 19:39 52.31140 4.80700 -5 ft 3 kts 80°
2026-04-30 19:39 52.31168 4.80694 -5 ft 8 kts 311°
2026-04-30 19:39 52.31216 4.80602 -5 ft 12 kts 310°
2026-04-30 19:40 52.31246 4.80537 -4 ft 2 kts 289°
2026-04-30 19:40 52.31247 4.80535 -4 ft 0 kts 287°
2026-04-30 19:40 52.31249 4.80495 -5 ft 8 kts 267°
2026-04-30 19:40 52.31222 4.80390 -5 ft 12 kts 221°
2026-04-30 19:41 52.31149 4.80287 -5 ft 15 kts 221°
2026-04-30 19:41 52.31058 4.80159 -4 ft 18 kts 220°
2026-04-30 19:41 52.30950 4.80006 -4 ft 22 kts 221°
2026-04-30 19:41 52.30826 4.79825 -4 ft 25 kts 222°
2026-04-30 19:42 52.30687 4.79626 -4 ft 28 kts 221°
2026-04-30 19:42 52.30539 4.79416 -4 ft 20 kts 221°
2026-04-30 19:42 52.30437 4.79269 -4 ft 21 kts 221°
2026-04-30 19:42 52.30318 4.79100 -4 ft 24 kts 221°
2026-04-30 19:43 52.30182 4.78904 -5 ft 27 kts 221°
2026-04-30 19:43 52.30068 4.78741 -5 ft 15 kts 221°
2026-04-30 19:43 52.30042 4.78631 -5 ft 7 kts 290°
2026-04-30 19:44 52.30059 4.78593 -5 ft 0 kts 312°
2026-04-30 19:46 52.30062 4.78588 -5 ft 3 kts 312°
2026-04-30 19:47 52.30106 4.78508 -4 ft 9 kts 314°
2026-04-30 19:47 52.30136 4.78495 -5 ft 7 kts 26°
2026-04-30 19:47 52.30147 4.78508 -5 ft 0 kts 42°
2026-04-30 19:50 52.30315 4.78750 -4 ft 85 kts 41°
2026-04-30 19:50 52.31006 4.79733 152 ft 164 kts 44°
2026-04-30 19:51 52.31881 4.80936 1221 ft 175 kts 47°
2026-04-30 19:51 52.32877 4.82296 2083 ft 210 kts 43°
2026-04-30 19:51 52.34304 4.83267 2912 ft 240 kts 15°
2026-04-30 19:51 52.36011 4.82909 3746 ft 263 kts 337°
2026-04-30 19:52 52.37496 4.81026 4703 ft 286 kts 316°
2026-04-30 19:52 52.38897 4.78727 5782 ft 294 kts 316°
2026-04-30 19:52 52.40346 4.76348 6920 ft 299 kts 316°
2026-04-30 19:52 52.41714 4.73810 8073 ft 304 kts 303°
2026-04-30 19:53 52.42507 4.70696 9217 ft 310 kts 279°
2026-04-30 19:53 52.42505 4.67267 10380 ft 313 kts 255°
2026-04-30 19:53 52.41636 4.63930 11323 ft 328 kts 236°
2026-04-30 19:53 52.40431 4.60628 12170 ft 350 kts 236°
2026-04-30 19:54 52.39179 4.57179 13042 ft 367 kts 236°
2026-04-30 19:54 52.37853 4.53517 13936 ft 379 kts 236°
2026-04-30 19:54 52.36519 4.49831 14996 ft 386 kts 236°
2026-04-30 19:54 52.35147 4.46041 16152 ft 389 kts 236°
2026-04-30 19:55 52.33788 4.42293 17232 ft 393 kts 237°
2026-04-30 19:55 52.32390 4.38437 18231 ft 398 kts 237°
2026-04-30 19:55 52.30986 4.34576 19143 ft 403 kts 236°
2026-04-30 19:55 52.29541 4.30602 20104 ft 406 kts 236°
2026-04-30 19:56 52.28094 4.26627 20975 ft 412 kts 237°
2026-04-30 19:56 52.26641 4.22642 21822 ft 416 kts 237°
2026-04-30 19:56 52.25145 4.18546 22640 ft 421 kts 237°
2026-04-30 19:56 52.23653 4.14469 23429 ft 425 kts 237°
2026-04-30 19:57 52.22140 4.10339 24173 ft 430 kts 237°
2026-04-30 19:57 52.20612 4.06171 24889 ft 434 kts 237°
2026-04-30 19:57 52.19058 4.01941 25585 ft 439 kts 237°
2026-04-30 19:57 52.17474 3.97637 26263 ft 443 kts 237°
2026-04-30 19:58 52.15893 3.93349 26916 ft 447 kts 237°
2026-04-30 19:58 52.14295 3.89021 27531 ft 450 kts 237°
2026-04-30 19:58 52.12693 3.84691 28095 ft 454 kts 237°
2026-04-30 19:58 52.11044 3.80240 28627 ft 458 kts 237°
2026-04-30 19:59 52.09400 3.75809 29137 ft 461 kts 237°
2026-04-30 19:59 52.07750 3.71371 29622 ft 464 kts 237°
2026-04-30 19:59 52.04421 3.62438 30710 ft 465 kts 237°
2026-04-30 20:00 52.02742 3.57943 31341 ft 463 kts 237°
2026-04-30 20:00 52.01074 3.53487 31979 ft 461 kts 237°
2026-04-30 20:00 51.99415 3.49148 32576 ft 458 kts 235°
2026-04-30 20:00 51.97557 3.44929 33155 ft 455 kts 232°
2026-04-30 20:01 51.93840 3.36736 33984 ft 457 kts 232°
2026-04-30 20:01 51.91934 3.32538 34231 ft 461 kts 231°
2026-04-30 20:01 51.90027 3.28346 34279 ft 469 kts 231°
2026-04-30 20:02 51.86578 3.19244 34275 ft 481 kts 243°
2026-04-30 20:02 51.85353 3.14217 34277 ft 484 kts 250°
2026-04-30 20:03 51.84042 3.03599 34276 ft 486 kts 262°
2026-04-30 20:03 51.83691 2.98127 34278 ft 486 kts 262°
2026-04-30 20:03 51.82986 2.87343 34272 ft 485 kts 262°
2026-04-30 20:04 51.82266 2.76514 34266 ft 486 kts 262°
2026-04-30 20:05 51.81166 2.60291 34264 ft 487 kts 262°
2026-04-30 20:05 51.80038 2.44064 34262 ft 486 kts 262°
2026-04-30 20:06 51.79271 2.33226 34260 ft 486 kts 261°
2026-04-30 20:06 51.78497 2.22394 34255 ft 486 kts 261°
2026-04-30 20:07 51.77853 2.11590 34257 ft 487 kts 262°
2026-04-30 20:08 51.76891 1.95310 34246 ft 488 kts 262°
2026-04-30 20:08 51.76237 1.84466 34242 ft 487 kts 262°
2026-04-30 20:09 51.75569 1.73584 34245 ft 487 kts 262°
2026-04-30 20:09 51.73837 1.57591 34232 ft 482 kts 248°
2026-04-30 20:10 51.70113 1.42670 34234 ft 482 kts 245°
2026-04-30 20:11 51.66319 1.27693 34230 ft 481 kts 244°
2026-04-30 20:11 51.63780 1.17735 34228 ft 481 kts 244°
2026-04-30 20:12 51.59972 1.02882 34219 ft 481 kts 244°
2026-04-30 20:13 51.57418 0.92978 34222 ft 481 kts 244°
2026-04-30 20:13 51.54848 0.83059 34221 ft 481 kts 244°
2026-04-30 20:14 51.52281 0.73193 34217 ft 480 kts 244°
2026-04-30 20:14 51.49704 0.63333 34214 ft 480 kts 244°
2026-04-30 20:15 51.47127 0.53520 34217 ft 480 kts 244°
2026-04-30 20:15 51.44545 0.43724 34213 ft 480 kts 244°
2026-04-30 20:16 51.41934 0.33865 34211 ft 479 kts 243°
2026-04-30 20:16 51.39340 0.24111 34211 ft 478 kts 243°
2026-04-30 20:17 51.36729 0.14336 34208 ft 478 kts 243°
2026-04-30 20:17 51.34119 0.04607 34205 ft 477 kts 243°
2026-04-30 20:18 51.31493 -0.05139 34201 ft 477 kts 243°
2026-04-30 20:18 51.28867 -0.14845 34199 ft 477 kts 243°
2026-04-30 20:19 51.26231 -0.24546 34195 ft 477 kts 243°
2026-04-30 20:19 51.23579 -0.34263 34193 ft 477 kts 243°
2026-04-30 20:20 51.20938 -0.43903 34188 ft 476 kts 243°
2026-04-30 20:20 51.18279 -0.53568 34187 ft 476 kts 243°
2026-04-30 20:21 51.15628 -0.63161 34188 ft 476 kts 243°
2026-04-30 20:21 51.12956 -0.72792 34185 ft 475 kts 243°
2026-04-30 20:22 51.10285 -0.82378 34178 ft 474 kts 243°
2026-04-30 20:22 51.07625 -0.91886 34174 ft 474 kts 243°
2026-04-30 20:23 51.04938 -1.01451 34164 ft 474 kts 243°
2026-04-30 20:23 51.02253 -1.10970 34160 ft 474 kts 243°
2026-04-30 20:24 50.99552 -1.20488 34157 ft 474 kts 242°
2026-04-30 20:24 50.96167 -1.29318 33935 ft 472 kts 230°
2026-04-30 20:24 50.94000 -1.33238 33561 ft 470 kts 223°
2026-04-30 20:25 50.88959 -1.39583 32731 ft 458 kts 210°
2026-04-30 20:25 50.86208 -1.41965 32237 ft 455 kts 205°
2026-04-30 20:26 50.80583 -1.46437 31240 ft 455 kts 205°
2026-04-30 20:26 50.74944 -1.50913 30231 ft 455 kts 205°
2026-04-30 20:26 50.72120 -1.53152 29727 ft 452 kts 205°
2026-04-30 20:27 50.66569 -1.57544 28697 ft 445 kts 205°
2026-04-30 20:27 50.61082 -1.61873 27600 ft 437 kts 205°
2026-04-30 20:28 50.55735 -1.66082 26515 ft 429 kts 204°
2026-04-30 20:28 50.50430 -1.70247 25410 ft 422 kts 203°
2026-04-30 20:29 50.45240 -1.74310 24314 ft 415 kts 203°
2026-04-30 20:30 50.37600 -1.80276 22670 ft 405 kts 203°
2026-04-30 20:30 50.30167 -1.86057 21098 ft 394 kts 203°
2026-04-30 20:31 50.22906 -1.91685 19688 ft 386 kts 202°
2026-04-30 20:32 50.15742 -1.97218 18404 ft 379 kts 202°
2026-04-30 20:32 50.11073 -2.00814 17631 ft 375 kts 202°
2026-04-30 20:33 50.08762 -2.02594 17353 ft 362 kts 202°
2026-04-30 20:33 50.04459 -2.05908 16863 ft 332 kts 202°
2026-04-30 20:33 50.02425 -2.07471 16618 ft 319 kts 202°
2026-04-30 20:34 49.98600 -2.10502 16132 ft 304 kts 209°
2026-04-30 20:34 49.95607 -2.15244 15627 ft 312 kts 224°
2026-04-30 20:35 49.94175 -2.17762 15384 ft 311 kts 224°
2026-04-30 20:35 49.92749 -2.20262 15130 ft 309 kts 224°
2026-04-30 20:35 49.89949 -2.25164 14638 ft 307 kts 224°
2026-04-30 20:36 49.88500 -2.27699 14373 ft 306 kts 224°
2026-04-30 20:36 49.87100 -2.30140 14131 ft 304 kts 224°
2026-04-30 20:36 49.84349 -2.35082 13629 ft 306 kts 233°
2026-04-30 20:37 49.83611 -2.38218 13390 ft 315 kts 260°
2026-04-30 20:37 49.83632 -2.41601 13136 ft 318 kts 270°
2026-04-30 20:37 49.83780 -2.45040 12878 ft 318 kts 270°
2026-04-30 20:37 49.83929 -2.48396 12630 ft 312 kts 271°
2026-04-30 20:38 49.84080 -2.51697 12386 ft 304 kts 270°
2026-04-30 20:38 49.84231 -2.54946 12140 ft 297 kts 271°
2026-04-30 20:38 49.84379 -2.58101 11895 ft 291 kts 271°
2026-04-30 20:39 49.84673 -2.64201 11410 ft 280 kts 271°
2026-04-30 20:39 49.84785 -2.67162 11156 ft 272 kts 262°
2026-04-30 20:39 49.84254 -2.69845 10910 ft 253 kts 230°
2026-04-30 20:40 49.81928 -2.73771 10358 ft 251 kts 220°
2026-04-30 20:40 49.80687 -2.75715 10043 ft 251 kts 220°
2026-04-30 20:40 49.79476 -2.77607 9744 ft 249 kts 220°
2026-04-30 20:41 49.77056 -2.81381 9152 ft 247 kts 220°
2026-04-30 20:41 49.75841 -2.83265 8848 ft 246 kts 220°
2026-04-30 20:41 49.74641 -2.85111 8546 ft 244 kts 219°
2026-04-30 20:41 49.73250 -2.86431 8241 ft 232 kts 190°
2026-04-30 20:42 49.71687 -2.86780 7944 ft 227 kts 186°
2026-04-30 20:42 49.70188 -2.87634 7637 ft 230 kts 204°
2026-04-30 20:42 49.67427 -2.89968 7013 ft 223 kts 205°
2026-04-30 20:43 49.66094 -2.91100 6710 ft 218 kts 205°
2026-04-30 20:43 49.64775 -2.92185 6411 ft 212 kts 199°
2026-04-30 20:43 49.63367 -2.92615 6134 ft 204 kts 181°
2026-04-30 20:44 49.60536 -2.92822 5548 ft 203 kts 180°
2026-04-30 20:44 49.59134 -2.92914 5253 ft 203 kts 180°
2026-04-30 20:44 49.56317 -2.93102 4671 ft 200 kts 180°
2026-04-30 20:45 49.53554 -2.93272 4174 ft 199 kts 180°
2026-04-30 20:45 49.52173 -2.93352 3920 ft 199 kts 180°
2026-04-30 20:45 49.50793 -2.93431 3664 ft 198 kts 180°
2026-04-30 20:46 49.47237 -2.91536 3097 ft 195 kts 127°
2026-04-30 20:46 49.46482 -2.89792 2948 ft 197 kts 125°
2026-04-30 20:47 49.44975 -2.86252 2648 ft 198 kts 125°
2026-04-30 20:47 49.44223 -2.84499 2502 ft 198 kts 125°
2026-04-30 20:48 49.42928 -2.81022 2252 ft 178 kts 109°
2026-04-30 20:48 49.42753 -2.79125 2130 ft 183 kts 93°
2026-04-30 20:48 49.42831 -2.77258 2012 ft 184 kts 85°
2026-04-30 20:48 49.42999 -2.75347 1990 ft 179 kts 85°
2026-04-30 20:49 49.43138 -2.73511 1817 ft 167 kts 87°
2026-04-30 20:49 49.43219 -2.71763 1621 ft 163 kts 90°
2026-04-30 20:49 49.43262 -2.70101 1429 ft 146 kts 91°
2026-04-30 20:50 49.43314 -2.67347 1087 ft 127 kts 91°
2026-04-30 20:50 49.43344 -2.66019 920 ft 123 kts 90°
2026-04-30 20:50 49.43376 -2.64695 759 ft 124 kts 90°
2026-04-30 20:50 49.43411 -2.63387 600 ft 121 kts 90°
2026-04-30 20:51 49.43446 -2.62092 432 ft 121 kts 90°
2026-04-30 20:51 49.43502 -2.59903 326 ft 49 kts 86°
2026-04-30 20:51 49.43514 -2.59487 332 ft 36 kts 87°
2026-04-30 20:52 49.43518 -2.59239 334 ft 10 kts 108°
2026-04-30 20:52 49.43455 -2.59199 334 ft 11 kts 174°
2026-04-30 20:52 49.43370 -2.59372 333 ft 12 kts 267°
2026-04-30 20:53 49.43339 -2.59403 333 ft 8 kts 173°
2026-04-30 20:53 49.43302 -2.59400 333 ft 0 kts 179°